Regional Weather Roundup
Issued by NWS

Home | Current Version | Previous Version | Graphics & Text | Print | Product List | Glossary On
Versions: 1 2 3 4 5 6 7 8 9 10 11 12 13 14 15 16 17 18 19 20 21 22 23 24 25 26 27 28 29 30 31 32 33 34 35 36 37 38 39 40 41 42 43 44 45 46 47 48 49 50
000
ASUS43 KDTX 281910
RWRMI
MICHIGAN HOURLY REGIONAL WEATHER ROUNDUP
NATIONAL WEATHER SERVICE DETROIT/PONTIAC MI
300 PM EDT FRI AUG 28 2015

NOTE: "FAIR" INDICATES FEW OR NO CLOUDS BELOW 12,000 FEET WITH NO
SIGNIFICANT WEATHER AND/OR OBSTRUCTION TO VISIBILITY.

MIZ047>049-052>055-059>063-066>070-074>076-081>083-282000-
SOUTHEAST LOWER MICHIGAN

CITY           SKY/WX    TMP DP  RH WIND       PRES   REMARKS
ADRIAN         MOSUNNY   75  56  51 W6        30.17F
ALMA           PTSUNNY   73  59  62 S6        30.15F
ANN ARBOR      MOSUNNY   74  59  59 S3        30.17F
BAD AXE        PTSUNNY   70  56  62 S8        30.17F
DETROIT CITY   PTSUNNY   73  55  53 SE7       30.17F
DETROIT        PTSUNNY   73  56  54 S8        30.18F
FLINT          MOSUNNY   76  57  51 S7        30.16F
GROSSE ILE     SUNNY     72  63  73 SE8       30.17F
HILLSDALE      CLOUDY    74  60  59 SW6       30.18S
HOWELL         MOSUNNY   76  55  48 S8        30.16F

CITY           SKY/WX    TMP DP  RH WIND       PRES   REMARKS
JACKSON        PTSUNNY   74  59  59 S9        30.16F
LAMBERTVILLE   MOSUNNY   76  56  49 SW5       30.18S
LANSING        PTSUNNY   74  58  57 S9        30.16F
LAPEER         NOT AVBL
MASON          PTSUNNY   74  56  52 SW3       30.16S
MONROE         MOSUNNY   74  58  56 SE6       30.16F
MT. CLEMENS    MOSUNNY   73  60  65 SE8       30.16F
PONTIAC        PTSUNNY   73  55  53 VRB5      30.17F
PORT HOPE        N/A     71  56  58 SE3       30.14F
PORT HURON     PTSUNNY   72  57  60 SE3       30.18F
TRI CITIES     MOSUNNY   74  56  53 SW7       30.16F
YPSILANTI      PTSUNNY   78  59  51 VRB6      30.18F
$$
MIZ043>046-050>051-056>058-064>065-071>073-077>080-282000-
SOUTHWEST LOWER MICHIGAN

CITY           SKY/WX    TMP DP  RH WIND       PRES   REMARKS
BATTLE CREEK   CLOUDY    76  61  59 SW8       30.16F
BENTON HARBOR  CLOUDY    75  60  59 W6        30.14S
BIG RAPIDS     PTSUNNY   73  56  56 S5        30.14S
COLDWATER      CLOUDY    74  60  63 SW6       30.16F
HOLLAND        CLOUDY    75  59  57 SW7       30.15F
GRAND RAPIDS   CLOUDY    75  59  57 VRB3      30.15S
KALAMAZOO      CLOUDY    75  60  59 SW8       30.15F
MARSHALL       CLOUDY    77  61  58 W7        30.15F
MUSKEGON       CLOUDY    73  59  61 SW7       30.15S
$$
MIZ016>042-282000-
NORTHERN LOWER MICHIGAN

CITY           SKY/WX    TMP DP  RH WIND       PRES   REMARKS
ALPENA         MOSUNNY   75  54  47 VRB5      30.12F
BEAVER ISLAND  PTSUNNY   69  60  74 SW9G18    30.10S
BELLAIRE       PTSUNNY   74  56  52 SW7       30.10F
CADILLAC       PTSUNNY   73  56  54 S5        30.13F
CHARLEVOIX     PTSUNNY   73  58  59 SW9       30.13F
FRANKFORT      MOCLDY    71  62  73 SW8G17    30.12S
GAYLORD        PTSUNNY   71  55  56 SW10      30.13F
GRAYLING       PTSUNNY   72  55  54 SW6       30.14F
HARBOR SPRINGS PTSUNNY   72  59  64 W5        30.10F
HOUGHTON LAKE  MOSUNNY   71  54  54 SW6       30.15F
MANISTEE       PTSUNNY   73  55  53 SW10G16   30.13S
OSCODA         MOSUNNY   73  55  53 S12       30.14S
PELLSTON       PTSUNNY   74  59  59 SW7       30.10F
TRAVERSE CITY  CLOUDY    75  57  53 SW7       30.10F
$$
MIZ007>008-015-282000-
EASTERN UPPER MICHIGAN

CITY           SKY/WX    TMP DP  RH WIND       PRES   REMARKS
KINROSS        PTSUNNY   73  61  64 SW12G17   30.08R
MACKINAC ISLAN MOSUNNY   70  56  61 W12       30.10R
NEWBERRY       MOSUNNY   73  59  60 S18G26    30.06S
S. S. MARIE    MOSUNNY   74  60  61 SW13      30.06S
$$
MIZ004>006-011>014-085-282000-
CENTRAL UPPER MICHIGAN

CITY           SKY/WX    TMP DP  RH WIND       PRES   REMARKS
MANISTIQUE     PTSUNNY   67  60  79 S9        30.07F
ESCANABA       CLOUDY    70  61  73 S20G25    30.04S
MENOMINEE      CLOUDY    72  61  68 SW12      30.06S
SAWYER-GWINN   PTSUNNY   75  59  57 S17G23    30.03R
$$
MIZ001>003-009>011-084-282000-
WESTERN UPPER MICHIGAN

CITY           SKY/WX    TMP DP  RH WIND       PRES   REMARKS
IRON MOUNTAIN  CLOUDY    72  61  68 SW9       30.04S
HOUGHTON       CLOUDY    71  61  70 W10       29.98F
COPPER HARBOR    N/A     72  61  68 CALM      29.96F
IRONWOOD       PTSUNNY   75  64  69 SW14G20   29.97F
$$

ABBREVIATIONS USED IN REMARKS
   TC - TEMPERATURE IN CELSIUS
  WCI - WIND CHILL INDEX
   HX - HEAT INDEX
  VSB - VISIBILITY



USA.gov is the U.S. government's official web portal to all federal, state and local government web resources and services.